When you browse on this site, cookies collect data to enhance your experience and personalize the content and advertising you see.
Visit our Privacy Policy to learn more. By continuing to use the site, you agree to this use of cookies and data.
  • In Lithuania
  • List of Countries
  • For 7 days
  • Water Temperature
  • Weather Map
  • Weather Widgets
  • user-avatar
    Login

    Hourly Weather Korçe

    Today, 28 March, Saturday

    Time Temperature Precipitation Wind Pressure Humidity
    00:00 +3°C° 0 mm 1 mps 663 mmHg 94%
    01:00 +2°C° 0 mm 1 mps 662 mmHg 94%
    02:00 +2°C° 0 mm 1 mps 662 mmHg 93%
    03:00 +2°C° 0 mm 1 mps 662 mmHg 93%
    04:00 +2°C° 0 mm 1 mps 661 mmHg 92%
    05:00 +2°C° 0 mm 1 mps 662 mmHg 90%
    06:00 +3°C° 0 mm 1 mps 662 mmHg 87%
    07:00 +4°C° 0 mm 1 mps 662 mmHg 85%
    08:00 +5°C° 0 mm 1 mps 662 mmHg 77%
    09:00 +7°C° 0 mm 1 mps 663 mmHg 69%
    10:00 +8°C° 0 mm 1 mps 663 mmHg 61%
    11:00 +9°C° 0 mm 1 mps 663 mmHg 58%
    12:00 +10°C° 0 mm 1 mps 663 mmHg 56%
    13:00 +10°C° 0 mm 1 mps 663 mmHg 53%
    14:00 +10°C° 0.2 mm 1 mps 663 mmHg 57%
    15:00 +8°C° 0.2 mm 2 mps 663 mmHg 60%
    16:00 +8°C° 0.2 mm 2 mps 662 mmHg 64%
    17:00 +7°C° 0.2 mm 2 mps 662 mmHg 73%
    18:00 +6°C° 0.2 mm 1 mps 662 mmHg 82%
    19:00 +5°C° 0.2 mm 1 mps 662 mmHg 91%
    20:00 +5°C° 0.1 mm 1 mps 662 mmHg 92%
    21:00 +4°C° 0.1 mm 1 mps 662 mmHg 93%
    22:00 +3°C° 0.1 mm 0 mps 662 mmHg 94%
    23:00 +3°C° 0 mm 0 mps 662 mmHg 94%

    Tomorrow, 29 March, Sunday

    Time Temperature Precipitation Wind Pressure Humidity
    00:00 +2°C° 0 mm 0 mps 662 mmHg 93%
    01:00 +2°C° 0 mm 0 mps 662 mmHg 93%
    02:00 +2°C° 0 mm 0 mps 662 mmHg 93%
    03:00 +2°C° 0 mm 0 mps 661 mmHg 93%
    04:00 +1°C° 0 mm 0 mps 661 mmHg 93%
    05:00 +2°C° 0 mm 0 mps 661 mmHg 90%
    06:00 +3°C° 0 mm 0 mps 662 mmHg 87%
    07:00 +4°C° 0 mm 0 mps 662 mmHg 85%
    08:00 +6°C° 0 mm 1 mps 662 mmHg 78%
    09:00 +8°C° 0 mm 1 mps 663 mmHg 72%
    10:00 +9°C° 0 mm 1 mps 663 mmHg 65%
    11:00 +10°C° 0.2 mm 1 mps 663 mmHg 64%
    12:00 +10°C° 0.2 mm 1 mps 663 mmHg 63%
    13:00 +10°C° 0.2 mm 2 mps 663 mmHg 62%
    14:00 +9°C° 0.4 mm 2 mps 662 mmHg 66%
    15:00 +9°C° 0.4 mm 2 mps 662 mmHg 70%
    16:00 +8°C° 0.4 mm 2 mps 662 mmHg 74%
    17:00 +8°C° 0.2 mm 1 mps 662 mmHg 80%
    18:00 +7°C° 0.2 mm 1 mps 661 mmHg 86%
    19:00 +6°C° 0.2 mm 1 mps 661 mmHg 91%
    20:00 +6°C° 0 mm 1 mps 661 mmHg 91%
    21:00 +5°C° 0 mm 1 mps 661 mmHg 91%
    22:00 +5°C° 0 mm 1 mps 661 mmHg 91%
    23:00 +5°C° 0 mm 1 mps 661 mmHg 90%

    Day after tomorrow, 30 March, Monday

    Time Temperature Precipitation Wind Pressure Humidity
    00:00 +5°C° 0 mm 1 mps 661 mmHg 90%
    01:00 +5°C° 0 mm 1 mps 661 mmHg 89%
    02:00 +4°C° 0 mm 1 mps 661 mmHg 89%
    03:00 +4°C° 0 mm 1 mps 660 mmHg 89%
    04:00 +4°C° 0 mm 1 mps 660 mmHg 89%
    05:00 +5°C° 0 mm 1 mps 660 mmHg 88%
    06:00 +6°C° 0 mm 1 mps 661 mmHg 87%
    07:00 +5°C° 0 mm 2 mps 661 mmHg 86%
    08:00 +7°C° 0 mm 2 mps 661 mmHg 79%
    09:00 +8°C° 0 mm 2 mps 662 mmHg 72%
    10:00 +10°C° 0 mm 2 mps 662 mmHg 65%
    11:00 +10°C° 0.1 mm 2 mps 662 mmHg 61%
    12:00 +12°C° 0.1 mm 2 mps 661 mmHg 57%
    13:00 +12°C° 0.1 mm 2 mps 661 mmHg 53%
    14:00 +12°C° 0.2 mm 2 mps 661 mmHg 56%
    15:00 +10°C° 0.2 mm 2 mps 660 mmHg 60%
    16:00 +10°C° 0.2 mm 2 mps 660 mmHg 63%
    17:00 +9°C° 0.2 mm 2 mps 660 mmHg 70%
    18:00 +8°C° 0.2 mm 2 mps 660 mmHg 77%
    19:00 +7°C° 0.2 mm 1 mps 660 mmHg 84%
    20:00 +7°C° 0.3 mm 1 mps 660 mmHg 85%
    21:00 +7°C° 0.3 mm 1 mps 660 mmHg 86%
    22:00 +7°C° 0.3 mm 1 mps 660 mmHg 87%
    23:00 +6°C° 0.1 mm 1 mps 660 mmHg 88%

    31 March, Tuesday

    Time Temperature Precipitation Wind Pressure Humidity
    00:00 +6°C° 0.1 mm 1 mps 660 mmHg 89%
    01:00 +6°C° 0.1 mm 1 mps 659 mmHg 89%
    02:00 +5°C° 0 mm 1 mps 659 mmHg 89%
    03:00 +5°C° 0 mm 1 mps 659 mmHg 89%
    04:00 +5°C° 0 mm 1 mps 660 mmHg 88%
    05:00 +5°C° 0 mm 1 mps 660 mmHg 86%
    06:00 +6°C° 0 mm 1 mps 660 mmHg 84%
    07:00 +6°C° 0 mm 1 mps 660 mmHg 82%
    08:00 +8°C° 0 mm 1 mps 661 mmHg 75%
    09:00 +8°C° 0 mm 2 mps 662 mmHg 69%
    10:00 +9°C° 0 mm 2 mps 662 mmHg 62%
    11:00 +9°C° 0.2 mm 2 mps 662 mmHg 62%
    12:00 +10°C° 0.2 mm 1 mps 662 mmHg 62%
    13:00 +11°C° 0.2 mm 1 mps 662 mmHg 61%
    14:00 +9°C° 0.5 mm 2 mps 662 mmHg 66%
    15:00 +9°C° 0.5 mm 2 mps 662 mmHg 70%
    16:00 +8°C° 0.5 mm 2 mps 662 mmHg 74%
    17:00 +7°C° 0.7 mm 2 mps 662 mmHg 79%
    18:00 +6°C° 0.7 mm 2 mps 662 mmHg 84%
    19:00 +5°C° 0.7 mm 2 mps 663 mmHg 90%
    20:00 +5°C° 0.1 mm 1 mps 663 mmHg 91%
    21:00 +5°C° 0.1 mm 1 mps 663 mmHg 93%
    22:00 +4°C° 0.1 mm 1 mps 663 mmHg 95%
    23:00 +4°C° 0 mm 1 mps 663 mmHg 95%

    1 April, Wednesday

    Time Temperature Precipitation Wind Pressure Humidity
    00:00 +4°C° 0 mm 1 mps 663 mmHg 95%
    01:00 +4°C° 0 mm 1 mps 663 mmHg 95%
    02:00 +4°C° 0 mm 1 mps 663 mmHg 95%
    03:00 +4°C° 0 mm 1 mps 663 mmHg 94%
    04:00 +3°C° 0 mm 1 mps 663 mmHg 94%
    05:00 +3°C° 0.4 mm 2 mps 663 mmHg 94%
    06:00 +3°C° 0.4 mm 2 mps 663 mmHg 94%
    07:00 +3°C° 0.4 mm 2 mps 663 mmHg 94%
    08:00 +3°C° 1.2 mm 2 mps 663 mmHg 94%
    09:00 +2°C° 1.2 mm 2 mps 663 mmHg 94%
    10:00 +2°C° 1.2 mm 2 mps 663 mmHg 94%
    11:00 +1°C° 0.3 mm 3 mps 663 mmHg 90%
    12:00 0°C° 0.3 mm 4 mps 663 mmHg 87%
    13:00 0°C° 0.3 mm 4 mps 663 mmHg 84%
    14:00 0°C° 0.1 mm 4 mps 663 mmHg 80%
    15:00 +1°C° 0.1 mm 3 mps 663 mmHg 75%
    16:00 +1°C° 0.1 mm 3 mps 663 mmHg 71%
    17:00 0°C° 0.1 mm 3 mps 663 mmHg 75%
    18:00 -1°C° 0.1 mm 2 mps 663 mmHg 80%
    19:00 -2°C° 0.1 mm 2 mps 663 mmHg 84%
    20:00 -3°C° 0 mm 2 mps 663 mmHg 83%
    21:00 -3°C° 0 mm 2 mps 663 mmHg 82%
    22:00 -4°C° 0 mm 2 mps 664 mmHg 80%
    23:00 -4°C° 0 mm 2 mps 664 mmHg 77%

    2 April, Thursday

    Time Temperature Precipitation Wind Pressure Humidity
    00:00 -4°C° 0 mm 2 mps 663 mmHg 74%
    01:00 -4°C° 0 mm 2 mps 663 mmHg 71%
    02:00 -5°C° 0 mm 2 mps 663 mmHg 70%
    03:00 -5°C° 0 mm 2 mps 663 mmHg 68%
    04:00 -5°C° 0 mm 2 mps 663 mmHg 67%
    05:00 -4°C° 0 mm 2 mps 663 mmHg 64%
    06:00 -3°C° 0 mm 2 mps 663 mmHg 61%
    07:00 -2°C° 0 mm 2 mps 664 mmHg 58%
    08:00 +1°C° 0 mm 2 mps 664 mmHg 53%
    09:00 +3°C° 0 mm 2 mps 665 mmHg 49%
    10:00 +5°C° 0 mm 2 mps 666 mmHg 44%
    11:00 +6°C° 0 mm 2 mps 666 mmHg 43%
    12:00 +8°C° 0 mm 1 mps 666 mmHg 41%
    13:00 +9°C° 0 mm 1 mps 666 mmHg 40%
    14:00 +9°C° 0 mm 1 mps 666 mmHg 43%
    15:00 +9°C° 0 mm 1 mps 665 mmHg 46%
    16:00 +7°C° 0 mm 2 mps 665 mmHg 48%
    17:00 +6°C° 0 mm 1 mps 664 mmHg 58%
    18:00 +4°C° 0 mm 1 mps 664 mmHg 68%
    19:00 +2°C° 0 mm 1 mps 664 mmHg 78%
    20:00 +2°C° 0 mm 1 mps 664 mmHg 79%
    21:00 +2°C° 0 mm 1 mps 664 mmHg 80%
    22:00 +2°C° 0 mm 1 mps 664 mmHg 81%
    23:00 +2°C° 0 mm 1 mps 664 mmHg 80%
    Show more